sat.trackr.live / text

‹ back to catalog

ONEWEB-0048

NORAD 45153 · 2020-008Y

PAYLOAD ACTIVE UNKNOWN

§ Identity

Operator
Country
UK
Launch date
2020-02-06
Launch site
TYMSC
Launch vehicle
Mass (kg)
RCS (m²)

Purposes: comms

External: N2YO · Heavens-Above · Gunter

§ Orbital elements

Epoch: 2026-09-20T03:11:06.664128Z

Period
109.89 min
Inclination
87.8904°
Eccentricity
0.0001825
Mean motion
13.10375743 rev/d
Perigee alt
1,220.3 km
Apogee alt
1,223.1 km
Semi-major
7,599.8 km
B*
-7.0866e-4
RAAN
17.3830°
Arg perigee
96.4466°
Mean anomaly
263.6869°
Rev number
32,024

§ Raw data

ONEWEB-00481 45153U 20008Y   26263.13271602 -.00000235  00000+0 -70866-3 0  99902 45153  87.8904  17.3830 0001825  96.4466 263.6869 13.10375743320244

JSON: /api/v1/satellites/45153 · /tle

For live sub-satellite position, see the globe view (requires WebGL).

§ Visibility from observer

Set your observer location to see the next 7 days of passes ≥ 10°. The values pass through the URL so the page stays shareable.

No JS? Fill the form by hand. The geolocation button needs JavaScript.